Cody, WY

2:09 AM MST on December 06, 2016 (GMT -0700)
Yellowstone Regional

Weather History for KCOD - February, 2014

Change the Weather History Date:

Thursday, February 27, 2014

  Actual Average Record
Temperature  
Mean Temperature 19 °F -  
Max Temperature 33 °F 44 °F 70 °F (1932)
Min Temperature 5 °F 22 °F -15 °F (1962)
Degree Days  
Heating Degree Days 46    
Moisture  
Dew Point 13 °F    
Average Humidity 77    
Maximum Humidity 92    
Minimum Humidity 57    
Precipitation  
Precipitation 0.00 in - - ()
Sea Level Pressure  
Sea Level Pressure 29.59 in    
Wind  
Wind Speed 3 mph (NE)    
Max Wind Speed 13 mph    
Max Gust Speed -    
Visibility 10 miles    
Events      
Averages and records for this station are not official NWS values.
T = Trace of Precipitation, MM = Missing Value Source: NWS Daily Summary

Daily Weather History Graph

Daily Weather History Graph

Search for Another Location

Airport or City:

Trip Planner

Search our weather history database for the weather conditions in past years. The results will help you decide how hot, cold, wet, or windy it might be!

Date:

Astronomy

Feb. 27, 2014 Rise Set
Actual Time 6:56 AM MST 6:01 PM MST
Civil Twilight 6:27 AM MST 6:30 PM MST
Nautical Twilight 5:53 AM MST 7:04 PM MST
Astronomical Twilight 5:20 AM MST 7:38 PM MST
Moon 5:34 AM MST (2/27) 4:29 PM MST (2/27)
Length of Visible Light 12h 03m
Length of Day
11h 04m
Waning Crescent, 4% of the Moon is Illuminated
Feb 27
Waning Crescent
Mar 1
New
Mar 8
First Quarter
Mar 16
Full
Mar 23
Last Quarter

Hourly Weather History & Observations

Time (MST) Temp. Windchill Dew Point Humidity Pressure Visibility Wind Dir Wind Speed Gust Speed Precip Events Conditions
12:15 AM 14.0 °F - 6.8 °F 73% 29.80 in 10.0 mi Calm Calm - N/A   Clear
12:35 AM 8.6 °F 0.1 °F -4.0 °F 57% 29.79 in 10.0 mi South 4.6 mph - N/A   Clear
12:55 AM 8.6 °F -1.3 °F 1.4 °F 73% 29.79 in 10.0 mi South 5.8 mph - N/A   Clear
1:15 AM 8.6 °F - -2.2 °F 62% 29.78 in 10.0 mi Calm Calm - N/A   Clear
1:35 AM 5.0 °F - 1.4 °F 85% 29.78 in 10.0 mi Calm Calm - N/A   Clear
1:55 AM 6.8 °F -2.0 °F 1.4 °F 79% 29.77 in 10.0 mi NW 4.6 mph - N/A   Clear
2:15 AM 6.8 °F - 3.2 °F 85% 29.76 in 10.0 mi Calm Calm - N/A   Clear
2:35 AM 10.4 °F 4.0 °F 5.0 °F 79% 29.75 in 10.0 mi South 3.5 mph - N/A   Clear
2:55 AM 12.2 °F - 10.4 °F 92% 29.74 in 10.0 mi Calm Calm - N/A   Partly Cloudy
3:15 AM 14.0 °F 2.0 °F 6.8 °F 73% 29.72 in 10.0 mi South 9.2 mph - N/A   Clear
3:35 AM 12.2 °F 2.9 °F 6.8 °F 79% 29.72 in 10.0 mi NNE 5.8 mph - N/A   Clear
3:55 AM 12.2 °F 2.9 °F 8.6 °F 85% 29.71 in 10.0 mi NNE 5.8 mph - N/A   Clear
4:15 AM 14.0 °F - 8.6 °F 79% 29.71 in 10.0 mi Calm Calm - N/A   Clear
4:35 AM 12.2 °F - 8.6 °F 85% 29.71 in 10.0 mi Calm Calm - N/A   Clear
4:55 AM 14.0 °F - 6.8 °F 73% 29.70 in 10.0 mi Calm Calm - N/A   Clear
5:15 AM 6.8 °F -0.1 °F -0.4 °F 72% 29.70 in 10.0 mi NE 3.5 mph - N/A   Clear
5:35 AM 6.8 °F - 3.2 °F 85% 29.69 in 10.0 mi Calm Calm - N/A   Clear
5:55 AM 6.8 °F -2.0 °F 1.4 °F 79% 29.68 in 10.0 mi SSE 4.6 mph - N/A   Clear
6:15 AM 10.4 °F 2.2 °F 6.8 °F 85% 29.68 in 10.0 mi South 4.6 mph - N/A   Clear
6:35 AM 10.4 °F - 5.0 °F 79% 29.67 in 10.0 mi Calm Calm - N/A   Clear
6:55 AM 10.4 °F - 5.0 °F 79% 29.67 in 10.0 mi Calm Calm - N/A   Clear
7:15 AM 12.2 °F 4.3 °F 6.8 °F 79% 29.66 in 10.0 mi SW 4.6 mph - N/A   Partly Cloudy
7:35 AM 15.8 °F 10.2 °F 10.4 °F 79% 29.66 in 10.0 mi ENE 3.5 mph - N/A   Partly Cloudy
7:55 AM 14.0 °F 5.1 °F 6.8 °F 73% 29.65 in 10.0 mi South 5.8 mph - N/A   Scattered Clouds
8:15 AM 17.6 °F 12.3 °F 12.2 °F 79% 29.65 in 10.0 mi NW 3.5 mph - N/A   Overcast
8:35 AM 17.6 °F - 12.2 °F 79% 29.64 in 10.0 mi Calm Calm - N/A   Mostly Cloudy
8:55 AM 19.4 °F 12.8 °F 12.2 °F 74% 29.63 in 10.0 mi South 4.6 mph - N/A   Clear
9:15 AM 15.8 °F 6.1 °F 8.6 °F 73% 29.63 in 10.0 mi ENE 6.9 mph - N/A   Scattered Clouds
9:35 AM 21.2 °F 16.4 °F 15.8 °F 80% 29.61 in 10.0 mi East 3.5 mph - N/A   Partly Cloudy
9:55 AM 19.4 °F 12.8 °F 12.2 °F 74% 29.61 in 10.0 mi NNE 4.6 mph - N/A   Clear
10:15 AM 19.4 °F 14.3 °F 12.2 °F 74% 29.61 in 10.0 mi NW 3.5 mph - N/A   Clear
10:35 AM 19.4 °F 12.8 °F 14.0 °F 80% 29.60 in 10.0 mi NNE 4.6 mph - N/A   Clear
10:55 AM 19.4 °F - 12.2 °F 74% 29.60 in 10.0 mi Calm Calm - N/A   Clear
11:15 AM 21.2 °F - 15.8 °F 80% 29.59 in 10.0 mi Calm Calm - N/A   Clear
11:35 AM 21.2 °F 12.6 °F 15.8 °F 80% 29.58 in 10.0 mi NE 6.9 mph - N/A   Clear
11:55 AM 21.2 °F 13.6 °F 14.0 °F 74% 29.58 in 10.0 mi NE 5.8 mph - N/A   Partly Cloudy
12:15 PM 19.4 °F 10.4 °F 14.0 °F 80% 29.57 in 10.0 mi NNE 6.9 mph - N/A   Clear
12:35 PM 19.4 °F 12.8 °F 15.8 °F 86% 29.56 in 10.0 mi North 4.6 mph - N/A   Partly Cloudy
12:55 PM 21.2 °F 16.4 °F 15.8 °F 80% 29.55 in 10.0 mi ENE 3.5 mph - N/A   Partly Cloudy
1:15 PM 24.8 °F - 15.8 °F 69% 29.54 in 10.0 mi Calm Calm - N/A   Clear
1:35 PM 26.6 °F 22.6 °F 19.4 °F 74% 29.53 in 10.0 mi NE 3.5 mph - N/A   Partly Cloudy
1:55 PM 24.8 °F 19.1 °F 19.4 °F 80% 29.53 in 10.0 mi North 4.6 mph - N/A   Mostly Cloudy
2:15 PM 24.8 °F - 19.4 °F 80% 29.52 in 10.0 mi Calm Calm - N/A   Partly Cloudy
2:35 PM 26.6 °F - 19.4 °F 74% 29.51 in 10.0 mi Calm Calm - N/A   Clear
2:55 PM 28.4 °F - 23.0 °F 80% 29.51 in 10.0 mi Calm Calm - N/A   Clear
3:15 PM 26.6 °F 22.6 °F 19.4 °F 74% 29.51 in 10.0 mi NE 3.5 mph - N/A   Scattered Clouds
3:35 PM 28.4 °F 24.6 °F 21.2 °F 74% 29.50 in 10.0 mi North 3.5 mph - N/A   Scattered Clouds
3:55 PM 28.4 °F - 21.2 °F 74% 29.50 in 10.0 mi Calm Calm - N/A   Partly Cloudy
4:15 PM 30.2 °F 25.4 °F 24.8 °F 80% 29.50 in 10.0 mi NNW 4.6 mph - N/A   Clear
4:35 PM 24.8 °F 19.1 °F 19.4 °F 80% 29.50 in 10.0 mi North 4.6 mph - N/A   Mostly Cloudy
4:55 PM 23.0 °F - 15.8 °F 74% 29.50 in 10.0 mi Calm Calm - N/A   Mostly Cloudy
5:15 PM 24.8 °F 19.1 °F 19.4 °F 80% 29.49 in 10.0 mi NNE 4.6 mph - N/A   Partly Cloudy
5:35 PM 21.2 °F - 15.8 °F 80% 29.49 in 10.0 mi Calm Calm - N/A   Scattered Clouds
5:55 PM 21.2 °F 16.4 °F 17.6 °F 86% 29.49 in 10.0 mi ENE 3.5 mph - N/A   Partly Cloudy
6:15 PM 21.2 °F - 15.8 °F 80% 29.49 in 10.0 mi Calm Calm - N/A   Clear
6:35 PM 23.0 °F 17.0 °F 19.4 °F 86% 29.49 in 10.0 mi NNE 4.6 mph - N/A   Clear
6:55 PM 23.0 °F 18.4 °F 17.6 °F 80% 29.49 in 10.0 mi NE 3.5 mph - N/A   Clear
7:15 PM 24.8 °F 19.1 °F 17.6 °F 74% 29.50 in 10.0 mi West 4.6 mph - N/A   Clear
7:35 PM 23.0 °F - 19.4 °F 86% 29.49 in 9.0 mi Calm Calm - N/A   Clear
7:55 PM 24.8 °F - 19.4 °F 80% 29.48 in 10.0 mi Calm Calm - N/A   Clear
8:15 PM 24.8 °F 20.5 °F 19.4 °F 80% 29.48 in 10.0 mi SSE 3.5 mph - N/A   Clear
8:35 PM 24.8 °F 20.5 °F 19.4 °F 80% 29.47 in 10.0 mi ESE 3.5 mph - N/A   Clear
8:55 PM 28.4 °F 23.3 °F 21.2 °F 74% 29.47 in 10.0 mi East 4.6 mph - N/A   Clear
9:15 PM 28.4 °F - 21.2 °F 74% 29.48 in 10.0 mi Calm Calm - N/A   Clear
9:35 PM 33.8 °F 28.6 °F 26.6 °F 75% 29.48 in 10.0 mi WSW 5.8 mph - N/A   Clear
9:55 PM 33.8 °F 27.7 °F 24.8 °F 70% 29.47 in 10.0 mi NNE 6.9 mph - N/A   Scattered Clouds
10:15 PM 33.8 °F 25.8 °F 24.8 °F 70% 29.48 in 10.0 mi NE 10.4 mph - N/A   Overcast
10:35 PM 26.6 °F 16.8 °F 21.2 °F 80% 29.49 in 10.0 mi NE 10.4 mph - N/A   Overcast
10:55 PM 24.8 °F 13.4 °F 15.8 °F 69% 29.49 in 10.0 mi NE 12.7 mph - N/A   Overcast
11:15 PM 24.8 °F 14.0 °F 15.8 °F 69% 29.50 in 10.0 mi NE 11.5 mph - N/A   Overcast
11:35 PM 24.8 °F 17.9 °F 12.2 °F 59% 29.51 in 10.0 mi North 5.8 mph - N/A   Overcast
11:55 PM 24.8 °F 16.1 °F 15.8 °F 69% 29.52 in 10.0 mi NNE 8.1 mph - N/A   Mostly Cloudy